| time (UTC) | temp F | wind direction | speed MPH | gust MPH | rain 1hr in | rain 24hr in | rain mn in | humidity % | barometer mb |
| 20260504204122 | 79 | 47 | 2.0 | 11.0 | 0.00 | 0.00 | 0.00 | 35 | 1003.0 |
| 20260504203631 | 79 | 65 | 5.0 | 11.0 | 0.00 | 0.00 | 0.00 | 34 | 1003.0 |
| 20260504203129 | 80 | 318 | 4.0 | 8.0 | 0.00 | 0.00 | 0.00 | 35 | 1003.0 |
| 20260504202657 | 80 | 146 | 5.0 | 8.0 | 0.00 | 0.00 | 0.00 | 35 | 1002.9 |
| 20260504202114 | 80 | 327 | 4.0 | 9.0 | 0.00 | 0.00 | 0.00 | 34 | 1003.0 |
| 20260504201623 | 80 | 315 | 5.0 | 10.0 | 0.00 | 0.00 | 0.00 | 35 | 1003.0 |
| 20260504201121 | 80 | 340 | 5.0 | 10.0 | 0.00 | 0.00 | 0.00 | 36 | 1002.9 |
| 20260504200627 | 80 | 33 | 2.0 | 10.0 | 0.00 | 0.00 | 0.00 | 35 | 1002.9 |
| 20260504200125 | 80 | 266 | 2.0 | 10.0 | 0.00 | 0.00 | 0.00 | 36 | 1002.9 |
| 20260504195628 | 80 | 235 | 1.0 | 13.0 | 0.00 | 0.00 | 0.00 | 38 | 1002.8 |
| 20260504195129 | 80 | 24 | 5.0 | 13.0 | 0.00 | 0.00 | 0.00 | 35 | 1002.8 |
| 20260504194636 | 79 | 40 | 5.0 | 10.0 | 0.00 | 0.00 | 0.00 | 36 | 1002.8 |
| 20260504194133 | 80 | 329 | 5.0 | 9.0 | 0.00 | 0.00 | 0.00 | 36 | 1002.8 |
| 20260504193623 | 80 | 342 | 5.0 | 12.0 | 0.00 | 0.00 | 0.00 | 35 | 1002.8 |
| 20260504193120 | 80 | 30 | 8.0 | 12.0 | 0.00 | 0.00 | 0.00 | 34 | 1002.7 |
| 20260504192626 | 80 | 59 | 6.0 | 12.0 | 0.00 | 0.00 | 0.00 | 34 | 1002.7 |
| 20260504192144 | 80 | 312 | 6.0 | 12.0 | 0.00 | 0.00 | 0.00 | 35 | 1002.7 |
| 20260504191648 | 80 | 292 | 7.0 | 13.0 | 0.00 | 0.00 | 0.00 | 34 | 1002.6 |
| 20260504191125 | 80 | 305 | 6.0 | 13.0 | 0.00 | 0.00 | 0.00 | 34 | 1002.6 |
| 20260504190628 | 81 | 284 | 4.0 | 13.0 | 0.00 | 0.00 | 0.00 | 34 | 1002.6 |
| 20260504190132 | 80 | 332 | 4.0 | 19.0 | 0.00 | 0.00 | 0.00 | 33 | 1002.4 |
| 20260504185636 | 81 | 317 | 6.0 | 19.0 | 0.00 | 0.00 | 0.00 | 32 | 1002.5 |
| 20260504185118 | 81 | 249 | 2.0 | 11.0 | 0.00 | 0.00 | 0.00 | 33 | 1002.4 |
| 20260504184625 | 81 | 308 | 3.0 | 13.0 | 0.00 | 0.00 | 0.00 | 33 | 1002.4 |
| 20260504184131 | 82 | 250 | 4.0 | 12.0 | 0.00 | 0.00 | 0.00 | 31 | 1002.3 |
| 20260504183655 | 82 | 341 | 4.0 | 9.0 | 0.00 | 0.00 | 0.00 | 32 | 1002.2 |
| 20260504183135 | 81 | 255 | 3.0 | 9.0 | 0.00 | 0.00 | 0.00 | 31 | 1002.2 |
| 20260504182623 | 81 | 314 | 5.0 | 13.0 | 0.00 | 0.00 | 0.00 | 31 | 1002.3 |
| 20260504182121 | 81 | 284 | 5.0 | 15.0 | 0.00 | 0.00 | 0.00 | 31 | 1002.3 |
| 20260504181623 | 80 | 255 | 5.0 | 15.0 | 0.00 | 0.00 | 0.00 | 32 | 1002.3 |
| 20260504181118 | 81 | 262 | 5.0 | 15.0 | 0.00 | 0.00 | 0.00 | 31 | 1002.3 |
| 20260504180623 | 81 | 277 | 4.0 | 11.0 | 0.00 | 0.00 | 0.00 | 32 | 1002.3 |
| 20260504180145 | 81 | 57 | 5.0 | 9.0 | 0.00 | 0.00 | 0.00 | 32 | 1002.4 |
| 20260504175631 | 80 | 344 | 3.0 | 11.0 | 0.00 | 0.00 | 0.00 | 32 | 1002.5 |
| 20260504175117 | 80 | 291 | 3.0 | 13.0 | 0.00 | 0.00 | 0.00 | 32 | 1002.5 |
| 20260504174623 | 80 | 279 | 4.0 | 13.0 | 0.00 | 0.00 | 0.00 | 32 | 1002.6 |
| 20260504174142 | 79 | 285 | 3.0 | 16.0 | 0.00 | 0.00 | 0.00 | 35 | 1002.6 |
| 20260504173628 | 79 | 296 | 7.0 | 16.0 | 0.00 | 0.00 | 0.00 | 33 | 1002.7 |
| 20260504173127 | 79 | 222 | 5.0 | 11.0 | 0.00 | 0.00 | 0.00 | 34 | 1002.7 |
| 20260504172630 | 79 | 286 | 5.0 | 13.0 | 0.00 | 0.00 | 0.00 | 34 | 1002.6 |
| 20260504172128 | 79 | 19 | 5.0 | 13.0 | 0.00 | 0.00 | 0.00 | 33 | 1002.7 |
| 20260504171629 | 79 | 212 | 4.0 | 10.0 | 0.00 | 0.00 | 0.00 | 35 | 1002.7 |
| 20260504171133 | 78 | 273 | 4.0 | 10.0 | 0.00 | 0.00 | 0.00 | 37 | 1002.8 |
| 20260504170619 | 78 | 183 | 3.0 | 8.0 | 0.00 | 0.00 | 0.00 | 38 | 1002.6 |
| 20260504170123 | 77 | 9 | 4.0 | 9.0 | 0.00 | 0.00 | 0.00 | 38 | 1002.8 |
| 20260504160126 | 73 | 243 | 3.0 | 7.0 | 0.00 | 0.00 | 0.00 | 44 | 1003.0 |
| 20260504151119 | 69 | 220 | 3.0 | 7.0 | 0.00 | 0.00 | 0.00 | 47 | 1002.9 |
| 20260504150624 | 68 | 267 | 4.0 | 7.0 | 0.00 | 0.00 | 0.00 | 47 | 1003.0 |
| 20260504150130 | 68 | 261 | 3.0 | 7.0 | 0.00 | 0.00 | 0.00 | 48 | 1002.9 |
| 20260504141125 | 63 | 358 | 3.0 | 8.0 | 0.00 | 0.00 | 0.00 | 52 | 1003.5 |
| 20260504140628 | 62 | 260 | 5.0 | 8.0 | 0.00 | 0.00 | 0.00 | 53 | 1003.5 |
| 20260504140133 | 62 | 248 | 1.0 | 7.0 | 0.00 | 0.00 | 0.00 | 55 | 1003.6 |
| 20260504130652 | 58 | 285 | 2.0 | 6.0 | 0.00 | 0.00 | 0.00 | 62 | 1003.5 |
| 20260504130127 | 57 | 264 | 1.0 | 6.0 | 0.00 | 0.00 | 0.00 | 66 | 1003.5 |
| 20260504120119 | 50 | 264 | 0.0 | 1.0 | 0.00 | 0.00 | 0.00 | 74 | 1003.2 |
| 20260504110629 | 51 | 264 | 0.0 | 0.0 | 0.00 | 0.00 | 0.00 | 72 | 1003.5 |
| 20260504043129 | 60 | 264 | 0.0 | 0.0 | 0.00 | 0.00 | 0.00 | 57 | 1007.6 |
| 20260504042632 | 60 | 264 | 0.0 | 0.0 | 0.00 | 0.00 | 0.00 | 56 | 1007.6 |
| 20260504042133 | 60 | 264 | 0.0 | 1.0 | 0.00 | 0.00 | 0.00 | 55 | 1007.6 |
| 20260504041619 | 61 | 264 | 0.0 | 1.0 | 0.00 | 0.00 | 0.00 | 56 | 1007.6 |
| 20260504041135 | 61 | 264 | 0.0 | 1.0 | 0.00 | 0.00 | 0.00 | 55 | 1007.8 |
| 20260504040618 | 61 | 264 | 0.0 | 1.0 | 0.00 | 0.00 | 0.00 | 56 | 1007.9 |
| 20260504040135 | 61 | 264 | 0.0 | 1.0 | 0.00 | 0.00 | 0.00 | 55 | 1007.9 |
| 20260504035625 | 61 | 264 | 0.0 | 1.0 | 0.00 | 0.00 | 0.00 | 55 | 1007.9 |
| 20260504035123 | 62 | 264 | 0.0 | 0.0 | 0.00 | 0.00 | 0.00 | 55 | 1008.0 |
| 20260504034628 | 62 | 264 | 0.0 | 1.0 | 0.00 | 0.00 | 0.00 | 54 | 1008.1 |
| 20260504034143 | 62 | 264 | 0.0 | 1.0 | 0.00 | 0.00 | 0.00 | 53 | 1008.1 |
| 20260504033626 | 62 | 264 | 0.0 | 0.0 | 0.00 | 0.00 | 0.00 | 53 | 1008.2 |
| 20260504033119 | 62 | 264 | 0.0 | 0.0 | 0.00 | 0.00 | 0.00 | 53 | 1008.2 |
| 20260504032623 | 63 | 264 | 0.0 | 0.0 | 0.00 | 0.00 | 0.00 | 52 | 1008.2 |
| 20260504032124 | 63 | 264 | 0.0 | 0.0 | 0.00 | 0.00 | 0.00 | 53 | 1008.3 |
| 20260504031653 | 63 | 264 | 0.0 | 0.0 | 0.00 | 0.00 | 0.00 | 53 | 1008.3 |
| 20260504031130 | 63 | 264 | 0.0 | 0.0 | 0.00 | 0.00 | 0.00 | 52 | 1008.4 |
| 20260504030633 | 63 | 264 | 0.0 | 0.0 | 0.00 | 0.00 | 0.00 | 51 | 1008.4 |
| 20260504030131 | 63 | 264 | 0.0 | 0.0 | 0.00 | 0.00 | 0.00 | 51 | 1008.3 |
| 20260504025635 | 64 | 264 | 0.0 | 0.0 | 0.00 | 0.00 | 0.00 | 51 | 1008.4 |
| 20260504025131 | 64 | 264 | 0.0 | 1.0 | 0.00 | 0.00 | 0.00 | 50 | 1008.4 |
| 20260504024635 | 64 | 264 | 0.0 | 1.0 | 0.00 | 0.00 | 0.00 | 51 | 1008.4 |
| 20260504024132 | 64 | 264 | 0.0 | 0.0 | 0.00 | 0.00 | 0.00 | 50 | 1008.4 |
| 20260504023657 | 64 | 264 | 0.0 | 0.0 | 0.00 | 0.00 | 0.00 | 50 | 1008.5 |
| 20260504023114 | 64 | 264 | 0.0 | 0.0 | 0.00 | 0.00 | 0.00 | 49 | 1008.4 |
| 20260504022624 | 65 | 264 | 0.0 | 0.0 | 0.00 | 0.00 | 0.00 | 49 | 1008.4 |
| 20260504022121 | 65 | 264 | 0.0 | 1.0 | 0.00 | 0.00 | 0.00 | 48 | 1008.5 |
| 20260504021629 | 65 | 264 | 0.0 | 1.0 | 0.00 | 0.00 | 0.00 | 48 | 1008.5 |
| 20260504021131 | 66 | 264 | 0.0 | 0.0 | 0.00 | 0.00 | 0.00 | 47 | 1008.5 |
| 20260504020635 | 66 | 264 | 0.0 | 0.0 | 0.00 | 0.00 | 0.00 | 46 | 1008.6 |
| 20260504020119 | 67 | 264 | 0.0 | 1.0 | 0.00 | 0.00 | 0.00 | 46 | 1008.6 |
| 20260504015622 | 67 | 264 | 0.0 | 1.0 | 0.00 | 0.00 | 0.00 | 44 | 1008.7 |
| 20260504015143 | 68 | 264 | 0.0 | 1.0 | 0.00 | 0.00 | 0.00 | 44 | 1008.7 |
| 20260504014645 | 68 | 264 | 0.0 | 1.0 | 0.00 | 0.00 | 0.00 | 42 | 1008.7 |
| 20260504014123 | 69 | 264 | 0.0 | 0.0 | 0.00 | 0.00 | 0.00 | 42 | 1008.7 |
| 20260504013627 | 69 | 264 | 0.0 | 0.0 | 0.00 | 0.00 | 0.00 | 41 | 1008.7 |
| 20260504013123 | 70 | 264 | 0.0 | 2.0 | 0.00 | 0.00 | 0.00 | 40 | 1008.7 |
| 20260504012629 | 70 | 264 | 0.0 | 2.0 | 0.00 | 0.00 | 0.00 | 39 | 1008.7 |
| 20260504012129 | 70 | 260 | 1.0 | 4.0 | 0.00 | 0.00 | 0.00 | 38 | 1008.6 |
| 20260504011633 | 71 | 259 | 1.0 | 4.0 | 0.00 | 0.00 | 0.00 | 38 | 1008.7 |
| 20260504011134 | 72 | 277 | 1.0 | 3.0 | 0.00 | 0.00 | 0.00 | 39 | 1008.7 |
| 20260504010637 | 72 | 220 | 0.0 | 2.0 | 0.00 | 0.00 | 0.00 | 38 | 1008.7 |
| 20260504010119 | 72 | 220 | 0.0 | 2.0 | 0.00 | 0.00 | 0.00 | 36 | 1008.7 |
| 20260504005644 | 72 | 220 | 0.0 | 4.0 | 0.00 | 0.00 | 0.00 | 36 | 1008.8 |
| 20260504005123 | 73 | 219 | 2.0 | 4.0 | 0.00 | 0.00 | 0.00 | 36 | 1008.8 |
| 20260504004630 | 73 | 222 | 1.0 | 4.0 | 0.00 | 0.00 | 0.00 | 35 | 1008.9 |
| 20260504004153 | 73 | 229 | 1.0 | 5.0 | 0.00 | 0.00 | 0.00 | 36 | 1008.9 |
| 20260504003636 | 73 | 229 | 3.0 | 5.0 | 0.00 | 0.00 | 0.00 | 35 | 1008.9 |
| 20260504003135 | 74 | 247 | 2.0 | 4.0 | 0.00 | 0.00 | 0.00 | 35 | 1008.9 |
| 20260504002623 | 74 | 248 | 1.0 | 5.0 | 0.00 | 0.00 | 0.00 | 34 | 1009.0 |
| 20260504002143 | 74 | 265 | 2.0 | 6.0 | 0.00 | 0.00 | 0.00 | 34 | 1009.0 |
| 20260504001650 | 75 | 277 | 3.0 | 6.0 | 0.00 | 0.00 | 0.00 | 33 | 1009.1 |
| 20260504001127 | 75 | 254 | 3.0 | 4.0 | 0.00 | 0.00 | 0.00 | 32 | 1009.1 |
| 20260504000651 | 76 | 235 | 0.0 | 6.0 | 0.00 | 0.00 | 0.00 | 33 | 1009.2 |
| 20260504000129 | 76 | 262 | 1.0 | 6.0 | 0.00 | 0.00 | 0.00 | 31 | 1009.2 |
| 20260503235635 | 76 | 236 | 1.0 | 5.0 | 0.00 | 0.00 | 0.00 | 31 | 1009.2 |
| 20260503235134 | 76 | 277 | 2.0 | 5.0 | 0.00 | 0.00 | 0.00 | 31 | 1009.2 |
| 20260503234654 | 76 | 300 | 0.0 | 5.0 | 0.00 | 0.00 | 0.00 | 31 | 1009.2 |
| 20260503234133 | 76 | 34 | 3.0 | 6.0 | 0.00 | 0.00 | 0.00 | 31 | 1009.2 |
| 20260503233620 | 76 | 264 | 1.0 | 6.0 | 0.00 | 0.00 | 0.00 | 31 | 1009.3 |
| 20260503233122 | 76 | 277 | 3.0 | 6.0 | 0.00 | 0.00 | 0.00 | 31 | 1009.3 |
| 20260503232626 | 76 | 317 | 2.0 | 5.0 | 0.00 | 0.00 | 0.00 | 30 | 1009.3 |
| 20260503232123 | 76 | 280 | 1.0 | 5.0 | 0.00 | 0.00 | 0.00 | 31 | 1009.4 |
| 20260503231630 | 76 | 275 | 1.0 | 6.0 | 0.00 | 0.00 | 0.00 | 31 | 1009.5 |
| 20260503231129 | 76 | 293 | 3.0 | 9.0 | 0.00 | 0.00 | 0.00 | 31 | 1009.4 |
| 20260503230621 | 76 | 270 | 3.0 | 9.0 | 0.00 | 0.00 | 0.00 | 31 | 1009.4 |
| 20260503230116 | 76 | 272 | 4.0 | 8.0 | 0.00 | 0.00 | 0.00 | 31 | 1009.5 |
| 20260503225623 | 76 | 256 | 4.0 | 8.0 | 0.00 | 0.00 | 0.00 | 31 | 1009.6 |
| 20260503225124 | 76 | 344 | 4.0 | 10.0 | 0.00 | 0.00 | 0.00 | 31 | 1009.5 |
| 20260503224629 | 76 | 266 | 7.0 | 10.0 | 0.00 | 0.00 | 0.00 | 31 | 1009.5 |
| 20260503224147 | 76 | 41 | 4.0 | 8.0 | 0.00 | 0.00 | 0.00 | 30 | 1009.5 |
| 20260503223630 | 76 | 40 | 4.0 | 8.0 | 0.00 | 0.00 | 0.00 | 30 | 1009.6 |
| 20260503223132 | 76 | 24 | 1.0 | 9.0 | 0.00 | 0.00 | 0.00 | 31 | 1009.7 |
| 20260503222617 | 76 | 283 | 4.0 | 9.0 | 0.00 | 0.00 | 0.00 | 31 | 1009.7 |
| 20260503222117 | 76 | 281 | 2.0 | 10.0 | 0.00 | 0.00 | 0.00 | 31 | 1009.7 |
| 20260503221626 | 76 | 271 | 7.0 | 10.0 | 0.00 | 0.00 | 0.00 | 31 | 1009.7 |
| 20260503221123 | 77 | 275 | 3.0 | 6.0 | 0.00 | 0.00 | 0.00 | 30 | 1009.7 |
| 20260503220628 | 77 | 134 | 1.0 | 6.0 | 0.00 | 0.00 | 0.00 | 30 | 1009.7 |
| 20260503220128 | 77 | 60 | 4.0 | 6.0 | 0.00 | 0.00 | 0.00 | 30 | 1009.8 |
| 20260503215632 | 76 | 25 | 2.0 | 9.0 | 0.00 | 0.00 | 0.00 | 29 | 1009.9 |
| 20260503215134 | 76 | 307 | 4.0 | 9.0 | 0.00 | 0.00 | 0.00 | 30 | 1009.9 |
| 20260503214637 | 76 | 28 | 2.0 | 6.0 | 0.00 | 0.00 | 0.00 | 31 | 1010.0 |
| 20260503214134 | 76 | 348 | 3.0 | 6.0 | 0.00 | 0.00 | 0.00 | 31 | 1010.0 |
| 20260503213619 | 76 | 240 | 3.0 | 5.0 | 0.00 | 0.00 | 0.00 | 32 | 1010.1 |
| 20260503213135 | 75 | 322 | 2.0 | 8.0 | 0.00 | 0.00 | 0.00 | 32 | 1010.1 |
| 20260503212619 | 75 | 19 | 1.0 | 10.0 | 0.00 | 0.00 | 0.00 | 32 | 1010.2 |
| 20260503212121 | 76 | 49 | 5.0 | 10.0 | 0.00 | 0.00 | 0.00 | 31 | 1010.3 |
| 20260503211628 | 76 | 60 | 2.0 | 7.0 | 0.00 | 0.00 | 0.00 | 31 | 1010.4 |
| 20260503211128 | 76 | 71 | 3.0 | 7.0 | 0.00 | 0.00 | 0.00 | 31 | 1010.6 |
| 20260503210632 | 76 | 54 | 2.0 | 6.0 | 0.00 | 0.00 | 0.00 | 32 | 1010.6 |
| 20260503210134 | 76 | 43 | 2.0 | 6.0 | 0.00 | 0.00 | 0.00 | 33 | 1010.6 |
| 20260503205616 | 75 | 101 | 3.0 | 7.0 | 0.00 | 0.00 | 0.00 | 33 | 1010.7 |
| 20260503205121 | 74 | 201 | 2.0 | 7.0 | 0.00 | 0.00 | 0.00 | 33 | 1010.8 |
| 20260503204628 | 75 | 262 | 3.0 | 8.0 | 0.00 | 0.00 | 0.00 | 33 | 1010.9 |